Wind_Speed
59 60 60 61 62 63 63 64 65 65 67 67 67 69 71 71 72 72 71 71 70 69 68 66 65 64 63 62 61 59 57 56 52 45 42 38 36 35 33 31 29 30 37
61 62 62 63 64 64 64 65 65 66 67 67 68 69 70 71 71 71 70 70 69 68 67 65 64 63 62 61 60 57 55 54 52 46 41 39 36 34 32 30 28 28 32
62 63 63 64 65 65 65 65 66 66 67 67 68 69 70 70 71 70 70 69 68 67 66 64 63 62 60 60 59 56 54 52 50 46 41 39 36 34 32 29 27 26 29
63 63 64 65 66 65 65 66 66 66 67 67 68 68 69 70 70 69 69 68 67 66 64 63 62 61 60 59 57 55 52 50 48 45 42 38 36 33 31 28 26 25 27
63 64 65 66 66 66 66 65 65 65 66 67 67 67 68 68 69 68 68 67 66 65 63 62 61 61 59 58 57 54 51 49 47 44 41 38 35 32 29 27 25 24 25
65 66 66 67 67 67 66 65 65 65 65 65 66 66 66 67 67 67 67 66 65 64 62 61 60 59 58 57 56 53 50 48 46 44 41 38 35 31 28 26 24 24 24
67 67 68 68 67 66 65 65 64 64 64 64 64 64 65 66 66 66 66 65 64 63 62 61 59 58 57 55 54 51 48 46 44 43 40 36 33 30 27 25 23 22 23
68 68 68 67 66 65 64 63 63 63 63 63 63 63 63 64 65 65 65 64 63 62 62 61 59 57 56 54 53 50 47 44 42 41 38 35 31 28 25 23 22 21 22
68 68 68 66 64 63 62 61 61 61 61 61 61 61 62 63 63 64 63 63 62 61 61 60 59 56 54 53 52 49 45 42 40 38 37 34 30 26 23 22 20 20 20
66 65 63 61 60 59 59 59 58 58 58 58 59 59 60 60 61 62 62 62 61 60 59 58 57 55 53 51 50 48 44 41 39 37 35 32 28 24 21 19 18 18 18
61 59 58 57 56 56 56 55 55 54 54 55 56 57 58 58 59 61 61 60 60 59 58 57 55 54 51 49 49 47 44 40 38 36 33 29 25 22 19 18 16 16 17
56 56 55 55 54 54 54 53 52 52 52 54 54 55 56 57 57 59 59 59 59 58 57 56 54 52 50 47 46 45 43 40 37 34 31 28 24 21 18 16 15 15 17
54 54 54 53 53 54 53 52 51 51 51 51 52 53 54 55 56 57 58 57 57 57 56 54 52 51 48 46 45 44 42 38 35 32 29 27 23 19 16 15 14 14 16
54 54 53 53 53 53 52 50 49 49 49 49 50 51 52 52 54 55 56 56 55 55 54 52 51 49 47 45 44 43 41 37 33 30 28 25 21 17 14 13 12 13 15
54 54 54 54 53 52 51 50 49 47 47 47 48 49 50 51 52 53 54 54 54 53 52 51 49 48 46 45 43 42 39 35 32 29 26 23 19 15 13 11 11 12 14
55 55 54 54 53 52 51 50 48 47 46 46 47 47 48 49 50 51 52 52 52 51 51 49 48 47 45 44 42 40 37 34 30 27 24 21 18 14 12 11 10 12 14
55 55 55 54 53 52 51 49 47 46 45 45 45 45 46 47 48 49 50 50 50 50 49 48 47 46 44 43 40 38 35 32 29 25 22 19 16 13 10 9 9 10 12
55 54 54 53 52 50 49 47 45 44 43 43 43 44 44 45 46 47 47 48 48 48 48 47 46 44 43 41 38 35 33 30 26 23 19 17 14 10 7 6 6 8 11
53 53 52 51 49 48 46 45 43 42 41 40 41 42 42 43 44 45 45 45 46 47 47 45 44 42 40 38 36 33 30 27 23 20 17 14 12 8 5 3 4 7 10
52 52 51 49 47 45 44 42 40 39 38 38 39 39 40 41 42 42 43 43 44 45 45 43 42 40 38 36 33 31 28 24 20 17 15 13 10 6 3 1 4 6 10
50 49 48 46 43 42 41 39 37 35 35 35 35 36 37 38 39 40 40 41 42 42 42 40 39 37 35 33 31 28 25 22 18 16 14 12 9 6 2 1 4 7 10
49 47 46 43 41 39 38 36 34 32 31 32 33 34 35 36 37 37 38 39 40 39 39 37 36 34 33 31 28 26 23 20 17 15 13 11 9 6 3 2 4 7 11
46 45 43 41 38 37 35 32 31 29 29 29 30 31 32 34 34 35 36 37 36 36 35 35 34 32 30 28 26 24 21 19 16 13 12 10 8 6 4 4 6 8 11
45 43 41 38 36 34 31 29 27 27 27 28 28 29 30 31 32 32 33 34 33 33 33 32 32 30 28 26 24 22 21 18 15 12 10 9 8 7 5 5 7 9 11
42 40 38 36 33 31 28 25 25 25 26 26 25 26 27 28 29 30 31 31 31 31 31 30 30 29 26 24 23 21 19 17 14 12 10 8 8 7 6 7 8 10 13
39 37 35 32 30 28 25 23 23 24 24 23 22 23 24 26 27 28 29 29 29 29 29 29 28 27 25 23 21 20 18 15 13 11 10 8 7 7 6 7 10 12 14
Wind_Direction
306 307 309 310 311 312 313 314 315 316 317 318 320 321 322 324 325 326 327 327 328 328 328 328 328 328 328 328 327 326 326 325 325 325 320 317 312 307 302 294 280 261 240
305 307 308 309 310 311 312 313 314 315 317 319 320 321 322 323 324 326 327 327 328 328 328 328 328 328 328 328 327 326 325 324 324 324 320 316 312 307 303 295 283 266 246
304 306 307 308 309 311 312 313 314 315 316 318 320 321 322 323 324 325 326 327 328 328 328 329 329 328 328 328 327 326 325 324 323 322 321 316 312 306 302 296 285 269 251
304 305 306 307 308 310 311 313 314 315 316 318 319 320 321 322 323 324 326 327 328 328 329 329 329 329 328 328 328 326 325 324 323 322 320 317 312 306 301 295 284 271 253
304 305 305 306 307 309 311 312 314 315 316 318 319 320 320 322 323 324 326 327 328 328 329 328 329 329 328 328 328 327 325 324 323 322 319 317 313 306 299 293 284 271 255
304 305 305 306 307 309 310 312 313 314 316 318 318 319 320 321 322 324 325 327 328 328 329 328 329 329 328 328 329 327 325 324 323 322 319 316 313 307 299 292 282 270 256
304 305 305 306 308 309 310 311 312 313 315 317 318 319 319 321 322 323 325 327 328 328 329 329 329 329 328 329 329 328 326 324 322 322 319 316 312 306 298 291 281 270 256
304 304 305 306 307 308 309 311 311 313 314 315 317 318 319 320 322 323 325 327 328 328 329 329 329 329 329 329 330 329 327 325 323 322 320 316 312 305 298 290 279 268 256
303 304 305 306 306 307 309 309 310 311 313 314 316 317 318 320 321 323 324 326 328 328 328 329 329 330 329 329 330 330 328 326 325 323 322 318 312 305 297 290 278 267 255
305 306 306 307 307 308 308 308 310 311 312 314 315 317 318 319 321 322 324 326 327 328 328 329 329 330 330 330 331 330 329 327 326 324 322 319 312 305 296 289 278 264 251
306 307 307 308 309 309 309 309 310 311 312 313 314 316 317 319 320 322 324 326 327 328 329 329 330 330 330 330 331 331 329 328 327 326 324 320 314 306 295 287 277 262 247
307 308 308 309 310 311 311 310 310 310 311 312 313 315 316 318 320 322 324 325 327 328 329 330 330 330 331 331 332 331 330 328 327 327 325 322 316 307 295 285 275 261 243
308 308 308 309 310 311 311 312 311 311 311 312 313 315 316 318 320 322 323 325 327 328 329 330 330 331 332 332 332 332 331 329 327 327 326 323 317 308 296 282 272 258 239
308 308 308 308 309 310 310 311 311 311 311 312 313 314 316 318 320 321 323 325 327 328 330 330 331 332 333 333 332 332 332 331 329 328 327 324 317 308 298 282 269 255 238
307 307 307 307 308 308 309 311 311 311 311 311 312 313 316 318 320 322 323 325 327 329 330 331 331 332 333 333 333 333 333 332 330 329 328 325 319 310 299 283 264 247 234
307 307 307 307 307 307 308 309 310 310 311 311 311 313 315 317 320 322 323 325 327 329 331 332 332 333 333 333 333 333 333 332 331 329 329 327 321 311 299 282 259 241 228
307 306 306 306 305 305 305 306 307 308 310 310 311 312 314 317 319 321 323 325 328 330 331 332 333 333 334 334 335 335 334 333 332 330 329 328 324 315 301 280 256 236 224
307 307 306 305 304 304 303 303 304 306 308 309 310 312 313 316 319 321 323 326 328 331 333 333 334 334 335 336 336 336 336 335 334 333 332 332 331 325 309 280 249 226 213
308 308 307 306 304 303 303 302 301 303 305 307 309 310 313 315 318 321 324 327 329 332 333 334 335 336 337 338 339 339 340 340 339 339 339 339 339 337 323 270 229 212 203
308 308 307 306 304 303 302 301 299 300 303 306 308 310 313 315 318 321 324 328 330 333 334 336 337 339 340 341 342 343 344 346 347 348 348 348 350 351 346 234 202 192 188
310 309 308 307 305 303 302 301 299 300 303 305 307 310 313 316 319 322 325 329 332 334 336 338 340 341 343 344 346 347 348 350 353 354 357 359 2 4 9 157 178 175 175
310 310 309 307 305 305 304 301 299 299 301 303 307 310 313 316 320 323 326 330 333 335 338 340 342 344 346 347 349 350 352 354 356 359 3 7 11 16 40 122 155 164 167
311 310 310 308 306 305 303 301 298 297 299 302 306 310 314 316 320 324 328 331 334 337 340 342 345 347 348 350 352 353 354 356 358 2 5 10 20 34 63 111 139 155 162
312 310 310 308 306 304 302 298 296 297 299 301 305 310 314 317 321 325 329 333 336 339 341 344 347 349 351 353 355 356 357 359 2 8 14 22 34 44 67 109 135 150 157
312 311 309 306 305 304 301 295 294 297 300 302 305 310 314 319 323 327 330 334 337 340 343 346 349 350 352 354 357 359 2 5 9 15 23 34 45 54 74 108 132 146 153
314 311 310 307 304 304 298 292 293 296 300 303 306 310 314 320 325 329 332 336 339 342 345 348 350 351 353 355 357 360 4 7 11 18 29 41 51 62 81 111 130 140 146
Height
5688 5680 5673 5665 5656 5647 5638 5629 5619 5609 5598 5588 5577 5565 5553 5541 5528 5515 5501 5486 5472 5457 5442 5428 5414 5400 5387 5373 5360 5348 5336 5324 5315 5311 5302 5295 5287 5281 5276 5271 5267 5267 5269
5675 5668 5660 5652 5643 5634 5626 5616 5606 5596 5586 5576 5565 5553 5541 5529 5516 5503 5490 5475 5461 5447 5432 5418 5405 5391 5378 5364 5352 5340 5328 5317 5306 5300 5295 5287 5280 5273 5268 5264 5261 5259 5260
5663 5655 5648 5639 5630 5622 5613 5603 5593 5584 5574 5563 5553 5542 5530 5518 5505 5492 5479 5465 5450 5436 5422 5408 5395 5381 5369 5356 5343 5331 5320 5309 5299 5291 5285 5279 5272 5266 5261 5257 5254 5253 5253
5649 5642 5634 5625 5617 5608 5599 5590 5581 5571 5561 5551 5540 5530 5518 5506 5494 5481 5468 5454 5440 5426 5412 5399 5386 5372 5360 5347 5335 5323 5312 5302 5292 5283 5276 5270 5264 5259 5253 5250 5248 5247 5247
5636 5628 5620 5611 5603 5595 5586 5577 5568 5558 5549 5539 5528 5518 5507 5495 5483 5470 5457 5444 5430 5417 5403 5390 5376 5363 5350 5338 5325 5314 5303 5293 5284 5275 5268 5262 5257 5251 5247 5243 5241 5241 5241
5622 5614 5605 5597 5589 5580 5572 5563 5554 5546 5536 5526 5516 5506 5495 5484 5472 5459 5447 5434 5421 5407 5394 5381 5368 5355 5342 5329 5317 5305 5294 5284 5275 5268 5261 5254 5249 5244 5240 5237 5235 5234 5235
5606 5598 5590 5582 5574 5566 5558 5550 5541 5532 5523 5514 5504 5494 5484 5473 5461 5449 5436 5424 5411 5397 5385 5372 5359 5346 5333 5321 5310 5299 5288 5277 5268 5260 5253 5247 5242 5237 5233 5230 5228 5228 5229
5591 5583 5574 5566 5559 5551 5543 5536 5527 5519 5511 5502 5492 5483 5473 5462 5450 5439 5426 5414 5401 5388 5375 5362 5350 5338 5324 5313 5302 5291 5281 5271 5263 5254 5247 5240 5235 5230 5227 5224 5223 5222 5223
5574 5566 5559 5551 5544 5537 5529 5521 5514 5506 5498 5489 5480 5471 5462 5451 5440 5428 5416 5404 5392 5379 5366 5353 5341 5329 5317 5305 5294 5284 5274 5265 5256 5248 5240 5234 5228 5224 5221 5218 5217 5217 5218
5558 5551 5544 5536 5529 5522 5515 5508 5500 5493 5485 5477 5469 5460 5451 5440 5429 5418 5406 5395 5383 5371 5358 5345 5332 5320 5308 5296 5286 5276 5266 5258 5250 5242 5235 5228 5222 5218 5215 5214 5212 5212 5213
5543 5537 5530 5523 5515 5509 5501 5494 5487 5480 5473 5466 5458 5449 5440 5430 5419 5408 5397 5385 5373 5361 5349 5337 5325 5312 5301 5289 5278 5268 5259 5251 5243 5236 5229 5223 5217 5213 5211 5209 5208 5208 5209
5529 5522 5516 5509 5502 5495 5489 5482 5475 5468 5461 5454 5446 5438 5429 5419 5409 5399 5387 5376 5364 5352 5341 5328 5317 5305 5294 5283 5272 5262 5253 5244 5237 5230 5223 5218 5213 5209 5206 5205 5204 5204 5206
5516 5509 5503 5496 5490 5483 5476 5469 5463 5456 5449 5442 5435 5427 5418 5409 5399 5389 5378 5367 5355 5343 5332 5320 5309 5298 5287 5277 5267 5257 5247 5239 5231 5224 5218 5213 5208 5205 5202 5201 5201 5201 5203
5504 5497 5490 5484 5477 5471 5464 5458 5451 5444 5438 5431 5424 5416 5408 5399 5389 5380 5369 5358 5347 5335 5324 5313 5302 5291 5280 5271 5261 5251 5242 5233 5226 5220 5214 5209 5204 5201 5199 5198 5198 5198 5200
5490 5484 5477 5471 5464 5458 5452 5446 5439 5433 5426 5420 5413 5406 5398 5389 5380 5370 5360 5350 5339 5328 5317 5306 5295 5285 5274 5264 5254 5245 5236 5228 5221 5215 5209 5204 5201 5198 5196 5195 5195 5196 5197
5476 5470 5464 5457 5451 5445 5439 5434 5427 5422 5415 5409 5402 5395 5388 5380 5370 5361 5352 5341 5331 5320 5309 5299 5289 5278 5268 5258 5249 5239 5231 5223 5216 5210 5205 5201 5197 5195 5193 5192 5192 5193 5195
5462 5456 5449 5443 5437 5432 5426 5421 5415 5410 5404 5398 5392 5385 5378 5370 5362 5353 5343 5334 5323 5313 5303 5292 5282 5272 5262 5252 5243 5234 5226 5219 5212 5206 5202 5198 5194 5192 5190 5190 5190 5192 5194
5447 5441 5434 5429 5423 5418 5413 5408 5403 5398 5393 5387 5382 5376 5369 5361 5353 5345 5336 5327 5317 5306 5296 5286 5276 5266 5256 5247 5238 5230 5222 5215 5209 5203 5199 5195 5192 5190 5189 5189 5189 5191 5193
5433 5426 5420 5414 5409 5404 5399 5395 5391 5387 5382 5377 5372 5366 5360 5353 5345 5337 5329 5320 5310 5300 5290 5280 5270 5261 5251 5243 5234 5226 5219 5212 5206 5201 5197 5194 5191 5190 5189 5189 5190 5191 5193
5419 5412 5406 5400 5395 5390 5386 5382 5379 5375 5372 5367 5363 5358 5351 5345 5338 5330 5322 5313 5304 5295 5285 5275 5266 5256 5248 5239 5231 5224 5217 5211 5205 5201 5197 5194 5192 5190 5190 5190 5191 5192 5194
5405 5399 5392 5387 5382 5378 5374 5370 5367 5364 5361 5358 5354 5349 5344 5337 5331 5324 5316 5308 5299 5289 5280 5271 5262 5253 5245 5237 5230 5223 5216 5211 5206 5202 5198 5195 5193 5192 5191 5191 5192 5194 5196
5392 5386 5380 5374 5370 5366 5362 5359 5357 5354 5352 5349 5345 5341 5336 5331 5324 5317 5310 5302 5294 5285 5276 5268 5259 5251 5243 5236 5229 5222 5217 5212 5207 5203 5200 5197 5195 5194 5193 5193 5194 5196 5199
5380 5374 5368 5363 5359 5355 5352 5349 5347 5345 5343 5341 5338 5334 5329 5324 5318 5312 5305 5297 5289 5281 5273 5265 5257 5249 5242 5235 5229 5223 5218 5213 5209 5205 5202 5199 5198 5196 5196 5196 5197 5199 5202
5369 5363 5358 5353 5349 5345 5342 5340 5338 5337 5335 5333 5330 5327 5323 5318 5313 5307 5300 5293 5286 5278 5271 5263 5256 5249 5242 5235 5229 5224 5219 5214 5210 5207 5204 5202 5200 5199 5199 5199 5200 5202 5205
5358 5353 5348 5343 5340 5336 5334 5332 5331 5330 5328 5326 5324 5321 5317 5313 5308 5302 5296 5289 5283 5276 5269 5262 5255 5248 5242 5236 5230 5225 5220 5215 5212 5209 5206 5204 5203 5202 5202 5203 5204 5206 5209
5349 5343 5339 5335 5332 5329 5327 5326 5325 5324 5322 5320 5318 5315 5312 5308 5303 5298 5292 5286 5280 5274 5267 5260 5254 5248 5242 5236 5231 5226 5221 5217 5214 5211 5209 5207 5206 5206 5206 5206 5208 5210 5213